1 Minute Report
Date Time Wind Direction Wind Speed Wind Gust Wind Variable Altimeter Temperature Dewpoint Relative Humidity Visibility Ceiling Precip Present Weather Density Alt Wind Chill Heat Index
18/04/23 03:43 000 00 N/A N/A 30.18 49(F), 9(C) 38(F), 3(C) 66% 10 SCT065 N/A N/A N/A 49 F N/A 4947
18/04/23 03:42 000 00 N/A N/A 30.18 49(F), 9(C) 38(F), 3(C) 66% 10 SCT065 N/A N/A N/A 49 F N/A 4946
18/04/23 03:41 000 00 N/A N/A 30.18 49(F), 9(C) 38(F), 3(C) 66% 10 SCT065 N/A N/A N/A 49 F N/A 4945
18/04/23 03:40 000 00 N/A N/A 30.18 49(F), 9(C) 38(F), 3(C) 66% 10 SCT065 N/A N/A N/A 49 F N/A 4944
18/04/23 03:39 000 00 N/A N/A 30.18 49(F), 9(C) 38(F), 3(C) 66% 10 SCT065 N/A N/A N/A 49 F N/A 4943
18/04/23 03:38 000 00 N/A N/A 30.18 49(F), 9(C) 38(F), 3(C) 66% 10 SCT065 N/A N/A N/A 49 F N/A 4942
18/04/23 03:37 000 00 N/A N/A 30.18 48(F), 9(C) 38(F), 3(C) 66% 10 SCT065 N/A N/A N/A 48 F N/A 4941
18/04/23 03:36 000 00 N/A N/A 30.18 48(F), 9(C) 38(F), 3(C) 66% 10 SCT065 N/A N/A N/A 48 F N/A 4940
18/04/23 03:35 000 00 N/A N/A 30.18 48(F), 9(C) 38(F), 3(C) 66% 10 SCT065 N/A N/A N/A 48 F N/A 4939
18/04/23 03:34 000 00 N/A N/A 30.18 48(F), 9(C) 38(F), 3(C) 66% 10 SCT065 N/A N/A N/A 48 F N/A 4938
18/04/23 03:33 000 00 N/A N/A 30.18 48(F), 9(C) 37(F), 3(C) 66% 10 CLR N/A N/A N/A 48 F N/A 4937
18/04/23 03:32 000 00 N/A N/A 30.18 48(F), 9(C) 37(F), 3(C) 66% 10 CLR N/A N/A N/A 48 F N/A 4936
18/04/23 03:31 000 00 N/A N/A 30.18 48(F), 9(C) 37(F), 3(C) 66% 10 CLR N/A N/A N/A 48 F N/A 4935
18/04/23 03:30 000 00 N/A N/A 30.18 48(F), 9(C) 37(F), 3(C) 66% 10 CLR N/A N/A N/A 48 F N/A 4934
18/04/23 03:29 000 00 N/A N/A 30.18 49(F), 9(C) 37(F), 3(C) 66% 10 CLR N/A N/A N/A 49 F N/A 4933
18/04/23 03:28 000 00 N/A N/A 30.18 49(F), 9(C) 37(F), 3(C) 66% 10 CLR N/A N/A N/A 49 F N/A 4932
18/04/23 03:27 000 00 N/A N/A 30.18 49(F), 9(C) 38(F), 3(C) 66% 10 CLR N/A N/A N/A 49 F N/A 4931
18/04/23 03:26 000 00 N/A N/A 30.18 50(F), 10(C) 38(F), 3(C) 62% 10 CLR N/A N/A N/A 50 F N/A 4930
18/04/23 03:25 000 00 N/A N/A 30.18 50(F), 10(C) 38(F), 3(C) 62% 10 CLR N/A N/A N/A 50 F N/A 4929
18/04/23 03:24 000 00 N/A N/A 30.18 50(F), 10(C) 38(F), 3(C) 62% 10 CLR N/A N/A N/A 50 F N/A 4928
18/04/23 03:23 000 00 N/A N/A 30.18 49(F), 9(C) 38(F), 3(C) 66% 10 CLR N/A N/A N/A 49 F N/A 4927
18/04/23 03:22 000 00 N/A N/A 30.18 49(F), 9(C) 38(F), 3(C) 66% 10 CLR N/A N/A N/A 49 F N/A 4926
18/04/23 03:21 000 00 N/A N/A 30.18 49(F), 9(C) 38(F), 3(C) 66% 10 CLR N/A N/A N/A 49 F N/A 4925
18/04/23 03:20 000 00 N/A N/A 30.18 49(F), 9(C) 38(F), 3(C) 66% 10 CLR N/A N/A N/A 49 F N/A 4924
18/04/23 03:19 000 00 N/A N/A 30.18 49(F), 9(C) 38(F), 3(C) 66% 10 CLR N/A N/A N/A 49 F N/A 4923
18/04/23 03:18 000 00 N/A N/A 30.18 49(F), 9(C) 37(F), 3(C) 66% 10 CLR N/A N/A N/A 49 F N/A 4922
18/04/23 03:17 000 00 N/A N/A 30.18 49(F), 9(C) 38(F), 3(C) 66% 10 CLR N/A N/A N/A 49 F N/A 4921
18/04/23 03:16 000 00 N/A N/A 30.18 49(F), 9(C) 38(F), 3(C) 66% 10 CLR N/A N/A N/A 49 F N/A 4920
18/04/23 03:15 000 00 N/A N/A 30.18 49(F), 9(C) 38(F), 3(C) 66% 10 CLR N/A N/A N/A 49 F N/A 4919
18/04/23 03:14 000 00 N/A N/A 30.18 49(F), 9(C) 38(F), 3(C) 66% 10 CLR N/A N/A N/A 49 F N/A 4918
18/04/23 03:13 000 00 N/A N/A 30.17 49(F), 9(C) 38(F), 3(C) 66% 10 CLR N/A N/A N/A 49 F N/A 4917
18/04/23 03:12 000 00 N/A N/A 30.17 49(F), 9(C) 38(F), 3(C) 66% 10 CLR N/A N/A N/A 49 F N/A 4916
18/04/23 03:11 000 00 N/A N/A 30.17 49(F), 9(C) 38(F), 3(C) 66% 10 CLR N/A N/A N/A 49 F N/A 4915
18/04/23 03:10 000 00 N/A N/A 30.17 49(F), 9(C) 38(F), 3(C) 66% 10 CLR N/A N/A N/A 49 F N/A 4914
18/04/23 03:09 000 00 N/A N/A 30.17 50(F), 10(C) 38(F), 3(C) 62% 10 CLR N/A N/A N/A 50 F N/A 4913
18/04/23 03:08 000 00 N/A N/A 30.17 50(F), 10(C) 38(F), 3(C) 62% 10 CLR N/A N/A N/A 50 F N/A 4912
18/04/23 03:07 000 00 N/A N/A 30.17 50(F), 10(C) 38(F), 3(C) 62% 10 CLR N/A N/A N/A 50 F N/A 4911
18/04/23 03:06 000 00 N/A N/A 30.17 51(F), 11(C) 38(F), 3(C) 58% 10 CLR N/A N/A N/A 51 F N/A 4910
18/04/23 03:05 000 00 N/A N/A 30.17 51(F), 11(C) 38(F), 3(C) 58% 10 CLR N/A N/A N/A 51 F N/A 4909
18/04/23 03:04 000 00 N/A N/A 30.17 51(F), 11(C) 38(F), 3(C) 58% 10 CLR N/A N/A N/A 51 F N/A 4908
18/04/23 03:03 000 00 N/A N/A 30.17 52(F), 11(C) 38(F), 3(C) 58% 10 CLR N/A N/A N/A 52 F N/A 4907
18/04/23 03:02 000 00 N/A N/A 30.17 51(F), 11(C) 38(F), 3(C) 58% 10 CLR N/A N/A N/A 51 F N/A 4906
18/04/23 03:01 000 00 N/A N/A 30.17 51(F), 11(C) 38(F), 3(C) 58% 10 CLR N/A N/A N/A 51 F N/A 4905
18/04/23 03:00 000 00 N/A N/A 30.17 51(F), 11(C) 38(F), 3(C) 58% 10 CLR N/A N/A N/A 51 F N/A 4904
18/04/23 02:59 000 00 N/A N/A 30.17 51(F), 11(C) 38(F), 3(C) 58% 10 CLR N/A N/A N/A 51 F N/A 4903
18/04/23 02:58 000 00 N/A N/A 30.17 51(F), 11(C) 38(F), 3(C) 58% 10 CLR N/A N/A N/A 51 F N/A 4902
18/04/23 02:57 000 00 N/A N/A 30.17 51(F), 11(C) 38(F), 3(C) 58% 10 CLR N/A N/A N/A 51 F N/A 4901
18/04/23 02:56 000 00 N/A N/A 30.17 51(F), 11(C) 38(F), 3(C) 58% 10 CLR N/A N/A N/A 51 F N/A 4900
18/04/23 02:55 060 03 N/A N/A 30.17 51(F), 11(C) 38(F), 3(C) 58% 10 CLR N/A N/A N/A 51 F N/A 4899
18/04/23 02:54 060 03 N/A N/A 30.17 51(F), 11(C) 38(F), 3(C) 58% 10 CLR N/A N/A N/A 51 F N/A 4898
18/04/23 02:53 070 03 N/A N/A 30.17 51(F), 11(C) 38(F), 3(C) 58% 10 CLR N/A N/A N/A 51 F N/A 4897
18/04/23 02:52 070 03 N/A N/A 30.17 52(F), 11(C) 38(F), 3(C) 58% 10 CLR N/A N/A N/A 52 F N/A 4896
18/04/23 02:51 070 03 N/A N/A 30.17 52(F), 11(C) 38(F), 3(C) 58% 10 CLR N/A N/A N/A 52 F N/A 4895
18/04/23 02:50 080 03 N/A N/A 30.17 52(F), 11(C) 38(F), 3(C) 58% 10 CLR N/A N/A N/A 52 F N/A 4894
18/04/23 02:49 080 04 N/A N/A 30.17 52(F), 11(C) 38(F), 3(C) 58% 10 CLR N/A N/A N/A 52 F N/A 4893
18/04/23 02:48 070 04 N/A N/A 30.17 52(F), 11(C) 38(F), 3(C) 58% 10 CLR N/A N/A N/A 52 F N/A 4892
18/04/23 02:47 070 04 N/A N/A 30.17 52(F), 11(C) 38(F), 3(C) 58% 10 CLR N/A N/A N/A 52 F N/A 4891
18/04/23 02:46 070 04 N/A N/A 30.17 51(F), 11(C) 38(F), 3(C) 58% 10 CLR N/A N/A N/A 51 F N/A 4890
18/04/23 02:45 070 04 N/A N/A 30.17 51(F), 11(C) 38(F), 3(C) 58% 10 CLR N/A N/A N/A 51 F N/A 4889
18/04/23 02:44 070 04 N/A N/A 30.17 51(F), 11(C) 38(F), 3(C) 58% 10 CLR N/A N/A N/A 51 F N/A 4888
18/04/23 02:43 070 04 N/A N/A 30.17 51(F), 11(C) 38(F), 3(C) 58% 10 CLR N/A N/A N/A 51 F N/A 4887
18/04/23 02:42 070 04 N/A N/A 30.17 51(F), 11(C) 38(F), 3(C) 58% 10 CLR N/A N/A N/A 51 F N/A 4886
18/04/23 02:41 070 03 N/A N/A 30.17 51(F), 11(C) 38(F), 3(C) 58% 10 CLR N/A N/A N/A 51 F N/A 4885
18/04/23 02:40 070 04 N/A N/A 30.16 51(F), 11(C) 38(F), 3(C) 58% 10 CLR N/A N/A N/A 51 F N/A 4884
18/04/23 02:39 070 03 N/A N/A 30.16 51(F), 11(C) 38(F), 3(C) 58% 10 CLR N/A N/A N/A 51 F N/A 4883
18/04/23 02:38 080 03 N/A N/A 30.16 52(F), 11(C) 38(F), 3(C) 58% 10 CLR N/A N/A N/A 52 F N/A 4882
18/04/23 02:37 080 04 N/A N/A 30.16 52(F), 11(C) 38(F), 3(C) 58% 10 CLR N/A N/A N/A 52 F N/A 4881
18/04/23 02:36 080 04 N/A N/A 30.16 52(F), 11(C) 38(F), 3(C) 58% 10 CLR N/A N/A N/A 52 F N/A 4880
18/04/23 02:35 080 04 N/A N/A 30.16 52(F), 11(C) 39(F), 4(C) 62% 10 CLR N/A N/A N/A 52 F N/A 4879
18/04/23 02:34 080 04 N/A N/A 30.16 52(F), 11(C) 39(F), 4(C) 62% 10 CLR N/A N/A N/A 52 F N/A 4878
18/04/23 02:33 080 04 N/A N/A 30.16 52(F), 11(C) 39(F), 4(C) 62% 10 CLR N/A N/A N/A 52 F N/A 4877
18/04/23 02:32 080 04 N/A N/A 30.16 52(F), 11(C) 39(F), 4(C) 62% 10 CLR N/A N/A N/A 52 F N/A 4876
18/04/23 02:31 080 03 N/A N/A 30.16 52(F), 11(C) 39(F), 4(C) 62% 10 CLR N/A N/A N/A 52 F N/A 4875
18/04/23 02:30 080 04 N/A N/A 30.16 52(F), 11(C) 39(F), 4(C) 62% 10 CLR N/A N/A N/A 52 F N/A 4874
18/04/23 02:29 080 04 N/A N/A 30.16 52(F), 11(C) 39(F), 4(C) 62% 10 CLR N/A N/A N/A 52 F N/A 4873
18/04/23 02:28 080 03 N/A N/A 30.16 53(F), 12(C) 39(F), 4(C) 58% 10 CLR N/A N/A N/A 53 F N/A 4872
18/04/23 02:27 000 00 N/A N/A 30.16 53(F), 12(C) 39(F), 4(C) 58% 10 CLR N/A N/A N/A 53 F N/A 4871
18/04/23 02:26 080 03 N/A N/A 30.16 53(F), 12(C) 39(F), 4(C) 58% 10 CLR N/A N/A N/A 53 F N/A 4870
18/04/23 02:25 000 00 N/A N/A 30.16 53(F), 12(C) 39(F), 4(C) 58% 10 CLR N/A N/A N/A 53 F N/A 4869
18/04/23 02:24 000 00 N/A N/A 30.16 53(F), 12(C) 39(F), 4(C) 58% 10 CLR N/A N/A N/A 53 F N/A 4868
18/04/23 02:23 000 00 N/A N/A 30.16 53(F), 12(C) 39(F), 4(C) 58% 10 CLR N/A N/A N/A 53 F N/A 4867
18/04/23 02:22 000 00 N/A N/A 30.16 53(F), 12(C) 39(F), 4(C) 58% 10 CLR N/A N/A N/A 53 F N/A 4866
18/04/23 02:21 000 00 N/A N/A 30.16 52(F), 11(C) 39(F), 4(C) 62% 10 CLR N/A N/A N/A 52 F N/A 4865
18/04/23 02:20 000 00 N/A N/A 30.16 52(F), 11(C) 39(F), 4(C) 62% 10 CLR N/A N/A N/A 52 F N/A 4864
18/04/23 02:19 000 00 N/A N/A 30.16 52(F), 11(C) 39(F), 4(C) 62% 10 CLR N/A N/A N/A 52 F N/A 4863
18/04/23 02:18 000 00 N/A N/A 30.16 52(F), 11(C) 39(F), 4(C) 62% 10 CLR N/A N/A N/A 52 F N/A 4862
18/04/23 02:17 000 00 N/A N/A 30.16 52(F), 11(C) 39(F), 4(C) 62% 10 CLR N/A N/A N/A 52 F N/A 4861
18/04/23 02:16 000 00 N/A N/A 30.16 52(F), 11(C) 39(F), 4(C) 62% 10 CLR N/A N/A N/A 52 F N/A 4860
18/04/23 02:15 000 00 N/A N/A 30.16 52(F), 11(C) 39(F), 4(C) 62% 10 CLR N/A N/A N/A 52 F N/A 4859
18/04/23 02:14 090 03 N/A N/A 30.16 53(F), 12(C) 39(F), 4(C) 58% 10 CLR N/A N/A N/A 53 F N/A 4858
18/04/23 02:13 090 03 N/A N/A 30.16 53(F), 12(C) 39(F), 4(C) 58% 10 CLR N/A N/A N/A 53 F N/A 4857
18/04/23 02:12 090 03 N/A N/A 30.16 53(F), 12(C) 39(F), 4(C) 58% 10 CLR N/A N/A N/A 53 F N/A 4856
18/04/23 02:11 090 03 N/A N/A 30.16 54(F), 12(C) 39(F), 4(C) 58% 10 CLR N/A N/A N/A 54 F N/A 4855
18/04/23 02:10 090 03 N/A N/A 30.16 54(F), 12(C) 39(F), 4(C) 58% 10 CLR N/A N/A N/A 54 F N/A 4854
18/04/23 02:09 090 03 N/A N/A 30.16 54(F), 12(C) 39(F), 4(C) 58% 10 CLR N/A N/A N/A 54 F N/A 4853
18/04/23 02:08 090 04 N/A N/A 30.16 54(F), 12(C) 39(F), 4(C) 58% 10 CLR N/A N/A N/A 54 F N/A 4852
18/04/23 02:07 090 04 N/A N/A 30.16 54(F), 12(C) 39(F), 4(C) 58% 10 CLR N/A N/A N/A 54 F N/A 4851
18/04/23 02:06 080 04 N/A N/A 30.16 54(F), 12(C) 39(F), 4(C) 58% 10 CLR N/A N/A N/A 54 F N/A 4850
18/04/23 02:05 080 04 N/A N/A 30.16 54(F), 12(C) 39(F), 4(C) 58% 10 CLR N/A N/A N/A 54 F N/A 4849
18/04/23 02:04 080 04 N/A N/A 30.15 54(F), 12(C) 39(F), 4(C) 58% 10 CLR N/A N/A N/A 54 F N/A 4848
18/04/23 02:03 080 04 N/A N/A 30.16 54(F), 12(C) 40(F), 4(C) 58% 10 CLR N/A N/A N/A 54 F N/A 4847
18/04/23 02:02 080 04 N/A N/A 30.16 54(F), 12(C) 40(F), 4(C) 58% 10 CLR N/A N/A N/A 54 F N/A 4846
18/04/23 02:01 080 04 N/A N/A 30.16 54(F), 12(C) 40(F), 4(C) 58% 10 SCT060 N/A N/A N/A 54 F N/A 4845
18/04/23 02:00 080 04 N/A N/A 30.16 54(F), 12(C) 40(F), 4(C) 58% 10 SCT060 N/A N/A N/A 54 F N/A 4844
18/04/23 01:59 080 04 N/A N/A 30.16 54(F), 12(C) 40(F), 4(C) 58% 10 SCT060 N/A N/A N/A 54 F N/A 4843
18/04/23 01:58 080 04 N/A N/A 30.15 53(F), 12(C) 40(F), 4(C) 58% 10 SCT060 N/A N/A N/A 53 F N/A 4842
18/04/23 01:57 080 03 N/A N/A 30.15 53(F), 12(C) 40(F), 4(C) 58% 10 SCT060 N/A N/A N/A 53 F N/A 4841
18/04/23 01:56 080 03 N/A N/A 30.15 53(F), 12(C) 40(F), 4(C) 58% 10 SCT060 N/A N/A N/A 53 F N/A 4840
18/04/23 01:55 080 03 N/A N/A 30.15 53(F), 12(C) 40(F), 4(C) 58% 10 SCT060 N/A N/A N/A 53 F N/A 4839
18/04/23 01:54 080 03 N/A N/A 30.15 53(F), 12(C) 40(F), 4(C) 58% 10 SCT060 N/A N/A N/A 53 F N/A 4838
18/04/23 01:53 080 03 N/A N/A 30.15 53(F), 12(C) 40(F), 4(C) 58% 10 SCT060 N/A N/A N/A 53 F N/A 4837
18/04/23 01:52 090 03 N/A N/A 30.15 54(F), 12(C) 40(F), 4(C) 58% 10 SCT060 N/A N/A N/A 54 F N/A 4836
18/04/23 01:51 090 03 N/A N/A 30.15 54(F), 12(C) 40(F), 4(C) 58% 10 SCT060 N/A N/A N/A 54 F N/A 4835
18/04/23 01:50 090 04 N/A N/A 30.15 54(F), 12(C) 40(F), 4(C) 58% 10 SCT060 N/A N/A N/A 54 F N/A 4834
18/04/23 01:49 100 04 N/A N/A 30.15 54(F), 12(C) 39(F), 4(C) 58% 10 SCT060 N/A N/A N/A 54 F N/A 4833
18/04/23 01:48 100 04 N/A N/A 30.15 55(F), 13(C) 39(F), 4(C) 54% 10 SCT060 N/A N/A N/A 55 F N/A 4832
18/04/23 01:47 100 04 N/A N/A 30.15 55(F), 13(C) 39(F), 4(C) 54% 10 SCT060 N/A N/A N/A 55 F N/A 4831
18/04/23 01:46 100 04 N/A N/A 30.15 55(F), 13(C) 39(F), 4(C) 54% 10 SCT060 N/A N/A N/A 55 F N/A 4830
18/04/23 01:45 100 04 N/A N/A 30.15 55(F), 13(C) 39(F), 4(C) 54% 10 SCT060 N/A N/A N/A 55 F N/A 4829
18/04/23 01:44 100 05 N/A N/A 30.15 55(F), 13(C) 39(F), 4(C) 54% 10 SCT060 N/A N/A N/A 54 F N/A 4828
18/04/23 01:43 100 05 N/A N/A 30.15 55(F), 13(C) 39(F), 4(C) 54% 10 BKN060 N/A N/A N/A 54 F N/A 4827